User: anonymous   Login
Location: Unspecified
(0.0000°N, 0.0000°E)
Time: 02:05:49
(UTC+00:00)
Language:

ION SCV-020 - Orbit

View from above orbital plane
View from above orbital plane
View from above satellite
View from above satellite

Ground track
Ground track

The orbit is defined by the following mean orbital elements,

1 64545U          26145.57747169 +.00000000 +00000-0 +12856-3 0 00006
2 64545  97.4611 260.7877 0007539 227.2278 132.8323 15.19304633    02
Epoch (UTC): 25 May 2026 13:51:33
Eccentricity: 0.0007539
inclination: 97.4611°
perigee height: 503 km
apogee height: 513 km
right ascension of ascending node: 260.7877°
argument of perigee: 227.2278°
revolutions per day: 15.19304633
mean anomaly at epoch: 132.8323°

The dashed part of the orbit path shows where the satellite is in the earth's shadow,  

DLR